AZU2648 SBRF-SBEG

Flight info

Callsign AZU2648
Flight time 3h 33m
Altitude 36000
Route MUNU1A IROSI DCT EDRIL DCT TELEG DCT ORIRO DCT IVTIM DCT KULAB KULA1A
Aircraft A21N/M-SDE2E3FGHIRWXY/LB1

Departure

Time 2026-04-25 17:39
Airport Recife/Guararapes - Gilberto Freyre International Airport (SBRF)

Arrival

Time 2026-04-25 21:12
Airport Eduardo Gomes International Airport (SBEG)
Time Latitude Longitude Altitude Speed Heading
2026-04-25 17:23 -8.12511 -34.92087 39 ft 0 kts 114°
2026-04-25 17:30 -8.12508 -34.92098 38 ft 3 kts 117°
2026-04-25 17:30 -8.12494 -34.92110 37 ft 0 kts 180°
2026-04-25 17:33 -8.12499 -34.92110 36 ft 3 kts 181°
2026-04-25 17:34 -8.12534 -34.92120 39 ft 7 kts 210°
2026-04-25 17:34 -8.12570 -34.92152 39 ft 7 kts 243°
2026-04-25 17:34 -8.12556 -34.92188 39 ft 6 kts 324°
2026-04-25 17:34 -8.12513 -34.92206 39 ft 8 kts 340°
2026-04-25 17:35 -8.12441 -34.92230 39 ft 14 kts 342°
2026-04-25 17:35 -8.12323 -34.92269 38 ft 21 kts 342°
2026-04-25 17:35 -8.12163 -34.92321 37 ft 27 kts 342°
2026-04-25 17:35 -8.11966 -34.92387 36 ft 31 kts 340°
2026-04-25 17:36 -8.11762 -34.92455 35 ft 30 kts 341°
2026-04-25 17:36 -8.11611 -34.92514 35 ft 5 kts 326°
2026-04-25 17:36 -8.11609 -34.92516 35 ft 1 kts 327°
2026-04-25 17:37 -8.11588 -34.92529 35 ft 6 kts 325°
2026-04-25 17:37 -8.11543 -34.92566 35 ft 12 kts 320°
2026-04-25 17:37 -8.11461 -34.92638 35 ft 19 kts 311°
2026-04-25 17:37 -8.11493 -34.92718 35 ft 9 kts 185°
2026-04-25 17:38 -8.11535 -34.92692 34 ft 9 kts 137°
2026-04-25 17:38 -8.11578 -34.92666 35 ft 12 kts 160°
2026-04-25 17:38 -8.11906 -34.92557 35 ft 74 kts 161°
2026-04-25 17:38 -8.12590 -34.92333 38 ft 134 kts 162°
2026-04-25 17:39 -8.13612 -34.91996 190 ft 165 kts 161°
2026-04-25 17:39 -8.14714 -34.91686 777 ft 162 kts 166°
2026-04-25 17:39 -8.15785 -34.91373 1424 ft 156 kts 162°
2026-04-25 17:39 -8.16827 -34.91017 1973 ft 170 kts 160°
2026-04-25 17:40 -8.18022 -34.90603 2228 ft 193 kts 160°
2026-04-25 17:40 -8.19340 -34.90128 2547 ft 207 kts 155°
2026-04-25 17:40 -8.20559 -34.89258 2809 ft 227 kts 130°
2026-04-25 17:40 -8.21157 -34.87752 3213 ft 241 kts 95°
2026-04-25 17:41 -8.20744 -34.86089 3731 ft 254 kts 64°
2026-04-25 17:41 -8.19717 -34.84568 4198 ft 268 kts 55°
2026-04-25 17:41 -8.18552 -34.83077 4859 ft 273 kts 54°
2026-04-25 17:41 -8.17361 -34.81557 5501 ft 277 kts 54°
2026-04-25 17:42 -8.16166 -34.80012 6214 ft 280 kts 54°
2026-04-25 17:42 -8.14971 -34.78447 6868 ft 283 kts 54°
2026-04-25 17:42 -8.13784 -34.76883 7494 ft 286 kts 55°
2026-04-25 17:42 -8.12571 -34.75278 8182 ft 289 kts 54°
2026-04-25 17:43 -8.11345 -34.73653 8835 ft 293 kts 55°
2026-04-25 17:43 -8.10010 -34.72087 9514 ft 297 kts 42°
2026-04-25 17:43 -8.08162 -34.71138 10088 ft 306 kts 13°
2026-04-25 17:43 -8.05991 -34.71177 10334 ft 325 kts 347°
2026-04-25 17:44 -8.03763 -34.71832 10574 ft 341 kts 342°
2026-04-25 17:44 -8.01462 -34.72603 10833 ft 355 kts 342°
2026-04-25 17:44 -7.99066 -34.73387 11140 ft 366 kts 343°
2026-04-25 17:44 -7.96658 -34.74160 11576 ft 371 kts 342°
2026-04-25 17:45 -7.94218 -34.75040 11848 ft 372 kts 341°
2026-04-25 17:45 -7.92581 -34.75657 11899 ft 372 kts 340°
2026-04-25 17:45 -7.89360 -34.76879 11905 ft 372 kts 341°
2026-04-25 17:45 -7.86930 -34.77796 11906 ft 373 kts 341°
2026-04-25 17:46 -7.84499 -34.78709 11903 ft 374 kts 341°
2026-04-25 17:46 -7.82055 -34.79626 11900 ft 374 kts 341°
2026-04-25 17:46 -7.79635 -34.80563 11900 ft 373 kts 337°
2026-04-25 17:46 -7.77394 -34.81912 12016 ft 380 kts 320°
2026-04-25 17:47 -7.75669 -34.83883 12531 ft 381 kts 303°
2026-04-25 17:47 -7.74373 -34.86215 13136 ft 380 kts 297°
2026-04-25 17:47 -7.73193 -34.88618 13589 ft 386 kts 296°
2026-04-25 17:47 -7.72011 -34.91067 14032 ft 389 kts 296°
2026-04-25 17:48 -7.69626 -34.95974 15054 ft 392 kts 297°
2026-04-25 17:48 -7.68415 -34.98449 15492 ft 395 kts 297°
2026-04-25 17:48 -7.67195 -35.00936 15973 ft 397 kts 297°
2026-04-25 17:49 -7.65975 -35.03422 16443 ft 398 kts 297°
2026-04-25 17:49 -7.64752 -35.05911 16817 ft 403 kts 297°
2026-04-25 17:49 -7.63477 -35.08505 17174 ft 408 kts 297°
2026-04-25 17:49 -7.62214 -35.11073 17640 ft 408 kts 297°
2026-04-25 17:50 -7.60954 -35.13635 18115 ft 408 kts 297°
2026-04-25 17:50 -7.59702 -35.16181 18337 ft 413 kts 297°
2026-04-25 17:50 -7.58422 -35.18783 18609 ft 416 kts 297°
2026-04-25 17:50 -7.57129 -35.21410 18842 ft 420 kts 297°
2026-04-25 17:51 -7.55827 -35.24055 19117 ft 422 kts 297°
2026-04-25 17:51 -7.54525 -35.26697 19367 ft 424 kts 297°
2026-04-25 17:51 -7.53199 -35.29383 19631 ft 425 kts 297°
2026-04-25 17:51 -7.51884 -35.32045 19864 ft 427 kts 297°
2026-04-25 17:52 -7.50553 -35.34739 20049 ft 430 kts 297°
2026-04-25 17:52 -7.49669 -35.36527 20198 ft 431 kts 297°
2026-04-25 17:52 -7.47881 -35.40145 20554 ft 432 kts 297°
2026-04-25 17:52 -7.46539 -35.42858 20768 ft 434 kts 297°
2026-04-25 17:53 -7.45189 -35.45589 20984 ft 436 kts 297°
2026-04-25 17:53 -7.43832 -35.48332 21198 ft 439 kts 297°
2026-04-25 17:53 -7.42516 -35.51107 21415 ft 440 kts 293°
2026-04-25 17:53 -7.41513 -35.54034 21635 ft 442 kts 286°
2026-04-25 17:54 -7.40731 -35.57042 21874 ft 444 kts 283°
2026-04-25 17:54 -7.40055 -35.60088 22091 ft 446 kts 282°
2026-04-25 17:54 -7.39434 -35.63111 22304 ft 448 kts 281°
2026-04-25 17:54 -7.38953 -35.65498 22487 ft 449 kts 281°
2026-04-25 17:55 -7.38332 -35.68563 22703 ft 451 kts 281°
2026-04-25 17:55 -7.37686 -35.71684 22918 ft 453 kts 282°
2026-04-25 17:55 -7.37028 -35.74811 23129 ft 455 kts 282°
2026-04-25 17:55 -7.36360 -35.77935 23325 ft 458 kts 282°
2026-04-25 17:56 -7.35684 -35.81074 23522 ft 460 kts 282°
2026-04-25 17:56 -7.35002 -35.84227 23703 ft 461 kts 282°
2026-04-25 17:56 -7.34317 -35.87386 23894 ft 462 kts 282°
2026-04-25 17:56 -7.33631 -35.90548 24087 ft 462 kts 282°
2026-04-25 17:57 -7.32945 -35.93712 24270 ft 463 kts 282°
2026-04-25 17:57 -7.32258 -35.96884 24474 ft 463 kts 282°
2026-04-25 17:57 -7.31571 -36.00059 24670 ft 464 kts 282°
2026-04-25 17:57 -7.31348 -36.01086 24740 ft 465 kts 282°
2026-04-25 17:58 -7.30192 -36.06423 25121 ft 466 kts 282°
2026-04-25 17:58 -7.29508 -36.09581 25362 ft 467 kts 282°
2026-04-25 17:58 -7.28812 -36.12791 25614 ft 468 kts 282°
2026-04-25 17:58 -7.28119 -36.15989 25866 ft 469 kts 282°
2026-04-25 17:59 -7.27421 -36.19207 26114 ft 470 kts 282°
2026-04-25 17:59 -7.26721 -36.22433 26362 ft 471 kts 282°
2026-04-25 17:59 -7.26016 -36.25677 26615 ft 472 kts 282°
2026-04-25 17:59 -7.25314 -36.28911 26879 ft 473 kts 282°
2026-04-25 18:00 -7.24612 -36.32143 27131 ft 474 kts 282°
2026-04-25 18:00 -7.23915 -36.35347 27357 ft 475 kts 281°
2026-04-25 18:00 -7.23205 -36.38613 27595 ft 476 kts 281°
2026-04-25 18:00 -7.22496 -36.41874 27831 ft 477 kts 281°
2026-04-25 18:01 -7.21785 -36.45145 28059 ft 478 kts 281°
2026-04-25 18:01 -7.21072 -36.48418 28287 ft 479 kts 281°
2026-04-25 18:01 -7.20358 -36.51700 28501 ft 480 kts 281°
2026-04-25 18:01 -7.19642 -36.54988 28768 ft 480 kts 281°
2026-04-25 18:02 -7.18927 -36.58267 29105 ft 478 kts 281°
2026-04-25 18:02 -7.18225 -36.61485 29435 ft 476 kts 281°
2026-04-25 18:02 -7.17516 -36.64739 29804 ft 475 kts 281°
2026-04-25 18:02 -7.16809 -36.67981 30086 ft 473 kts 281°
2026-04-25 18:03 -7.16102 -36.71218 30307 ft 473 kts 281°
2026-04-25 18:03 -7.15422 -36.74476 30503 ft 474 kts 279°
2026-04-25 18:03 -7.14883 -36.77748 30700 ft 474 kts 277°
2026-04-25 18:03 -7.14438 -36.80994 30898 ft 474 kts 277°
2026-04-25 18:04 -7.14026 -36.84288 31108 ft 474 kts 276°
2026-04-25 18:04 -7.13621 -36.87582 31315 ft 474 kts 277°
2026-04-25 18:04 -7.13209 -36.90876 31533 ft 474 kts 277°
2026-04-25 18:04 -7.12788 -36.94162 31736 ft 474 kts 277°
2026-04-25 18:05 -7.12354 -36.97465 31935 ft 474 kts 277°
2026-04-25 18:05 -7.11914 -37.00756 32126 ft 475 kts 277°
2026-04-25 18:05 -7.11470 -37.04056 32296 ft 476 kts 278°
2026-04-25 18:05 -7.11024 -37.07355 32490 ft 476 kts 278°
2026-04-25 18:06 -7.10577 -37.10654 32680 ft 476 kts 278°
2026-04-25 18:06 -7.10129 -37.13964 32870 ft 476 kts 278°
2026-04-25 18:06 -7.09682 -37.17266 33048 ft 476 kts 278°
2026-04-25 18:06 -7.09234 -37.20579 33224 ft 476 kts 278°
2026-04-25 18:07 -7.08792 -37.23845 33402 ft 477 kts 278°
2026-04-25 18:07 -7.08344 -37.27149 33693 ft 474 kts 278°
2026-04-25 18:07 -7.07899 -37.30426 33921 ft 472 kts 278°
2026-04-25 18:07 -7.07454 -37.33711 34057 ft 473 kts 278°
2026-04-25 18:08 -7.07008 -37.36997 34206 ft 473 kts 278°
2026-04-25 18:08 -7.06564 -37.40274 34356 ft 472 kts 278°
2026-04-25 18:08 -7.06119 -37.43549 34509 ft 472 kts 278°
2026-04-25 18:08 -7.05680 -37.46788 34660 ft 472 kts 278°
2026-04-25 18:09 -7.05236 -37.50057 34885 ft 469 kts 278°
2026-04-25 18:09 -7.04796 -37.53297 35151 ft 465 kts 278°
2026-04-25 18:09 -7.04355 -37.56537 35280 ft 466 kts 279°
2026-04-25 18:10 -7.03474 -37.63012 35413 ft 468 kts 279°
2026-04-25 18:10 -7.02588 -37.69522 35582 ft 470 kts 279°
2026-04-25 18:11 -7.01701 -37.76031 35816 ft 469 kts 279°
2026-04-25 18:11 -7.00814 -37.82530 35869 ft 472 kts 279°
2026-04-25 18:12 -6.99920 -37.89068 35868 ft 471 kts 279°
2026-04-25 18:12 -6.99026 -37.95610 35877 ft 471 kts 279°
2026-04-25 18:13 -6.98131 -38.02147 35872 ft 471 kts 279°
2026-04-25 18:13 -6.97237 -38.08670 35872 ft 471 kts 279°
2026-04-25 18:14 -6.95898 -38.18420 35876 ft 470 kts 279°
2026-04-25 18:14 -6.95002 -38.24944 35884 ft 470 kts 279°
2026-04-25 18:15 -6.94102 -38.31480 35880 ft 470 kts 279°
2026-04-25 18:15 -6.93209 -38.37967 35882 ft 470 kts 279°
2026-04-25 18:16 -6.92311 -38.44482 35883 ft 470 kts 279°
2026-04-25 18:17 -6.90959 -38.54274 35880 ft 470 kts 279°
2026-04-25 18:17 -6.90057 -38.60795 35883 ft 470 kts 280°
2026-04-25 18:18 -6.89154 -38.67324 35881 ft 470 kts 280°
2026-04-25 18:18 -6.88250 -38.73850 35884 ft 470 kts 280°
2026-04-25 18:19 -6.87352 -38.80329 35885 ft 470 kts 280°
2026-04-25 18:19 -6.86447 -38.86846 35885 ft 470 kts 280°
2026-04-25 18:20 -6.85542 -38.93365 35886 ft 470 kts 280°
2026-04-25 18:20 -6.84789 -38.98781 35888 ft 470 kts 280°
2026-04-25 18:21 -6.83881 -39.05300 35885 ft 470 kts 280°
2026-04-25 18:21 -6.82826 -39.12873 35885 ft 470 kts 280°
2026-04-25 18:22 -6.81919 -39.19382 35892 ft 470 kts 280°
2026-04-25 18:22 -6.81162 -39.24799 35890 ft 470 kts 280°
2026-04-25 18:23 -6.80250 -39.31327 35889 ft 470 kts 280°
2026-04-25 18:23 -6.79339 -39.37838 35890 ft 469 kts 280°
2026-04-25 18:24 -6.78433 -39.44313 35899 ft 470 kts 280°
2026-04-25 18:24 -6.77521 -39.50821 35896 ft 469 kts 280°
2026-04-25 18:25 -6.76608 -39.57330 35891 ft 469 kts 280°
2026-04-25 18:25 -6.75700 -39.63792 35895 ft 469 kts 280°
2026-04-25 18:26 -6.74784 -39.70305 35897 ft 469 kts 280°
2026-04-25 18:26 -6.73870 -39.76805 35890 ft 469 kts 280°
2026-04-25 18:27 -6.72955 -39.83304 35897 ft 469 kts 280°
2026-04-25 18:27 -6.72038 -39.89807 35899 ft 469 kts 280°
2026-04-25 18:28 -6.71119 -39.96323 35897 ft 469 kts 280°
2026-04-25 18:28 -6.70204 -40.02798 35901 ft 469 kts 280°
2026-04-25 18:29 -6.68823 -40.12562 35902 ft 469 kts 280°
2026-04-25 18:30 -6.66989 -40.25509 35903 ft 471 kts 280°
2026-04-25 18:30 -6.66056 -40.32084 35901 ft 471 kts 280°
2026-04-25 18:31 -6.65129 -40.38613 35902 ft 471 kts 280°
2026-04-25 18:31 -6.64200 -40.45145 35907 ft 471 kts 280°
2026-04-25 18:32 -6.63273 -40.51665 35910 ft 471 kts 280°
2026-04-25 18:32 -6.62347 -40.58165 35912 ft 471 kts 280°
2026-04-25 18:33 -6.61417 -40.64692 35909 ft 471 kts 280°
2026-04-25 18:33 -6.60485 -40.71222 35914 ft 471 kts 280°
2026-04-25 18:34 -6.59554 -40.77742 35919 ft 471 kts 280°
2026-04-25 18:34 -6.58621 -40.84270 35912 ft 471 kts 280°
2026-04-25 18:35 -6.57687 -40.90798 35910 ft 471 kts 280°
2026-04-25 18:35 -6.56752 -40.97323 35911 ft 471 kts 280°
2026-04-25 18:36 -6.55824 -41.03800 35908 ft 471 kts 280°
2026-04-25 18:36 -6.54890 -41.10305 35910 ft 471 kts 280°
2026-04-25 18:37 -6.53955 -41.16819 35911 ft 471 kts 280°
2026-04-25 18:37 -6.53016 -41.23351 35908 ft 471 kts 280°
2026-04-25 18:38 -6.52077 -41.29875 35903 ft 471 kts 280°
2026-04-25 18:38 -6.51144 -41.36350 35907 ft 470 kts 280°
2026-04-25 18:39 -6.50205 -41.42862 35905 ft 470 kts 280°
2026-04-25 18:39 -6.49266 -41.49376 35898 ft 470 kts 280°
2026-04-25 18:40 -6.48326 -41.55880 35896 ft 470 kts 280°
2026-04-25 18:40 -6.47391 -41.62344 35895 ft 470 kts 280°
2026-04-25 18:41 -6.46450 -41.68851 35895 ft 469 kts 280°
2026-04-25 18:41 -6.45508 -41.75354 35893 ft 469 kts 280°
2026-04-25 18:42 -6.44725 -41.80761 35891 ft 469 kts 280°
2026-04-25 18:42 -6.43629 -41.88311 35888 ft 469 kts 280°
2026-04-25 18:43 -6.42687 -41.94801 35885 ft 469 kts 280°
2026-04-25 18:43 -6.41743 -42.01295 35890 ft 469 kts 280°
2026-04-25 18:44 -6.40798 -42.07790 35881 ft 469 kts 280°
2026-04-25 18:44 -6.39854 -42.14277 35887 ft 469 kts 280°
2026-04-25 18:45 -6.38908 -42.20765 35887 ft 469 kts 280°
2026-04-25 18:45 -6.37967 -42.27216 35884 ft 469 kts 280°
2026-04-25 18:46 -6.37018 -42.33712 35885 ft 469 kts 280°
2026-04-25 18:46 -6.36070 -42.40201 35890 ft 469 kts 280°
2026-04-25 18:47 -6.35121 -42.46694 35892 ft 469 kts 279°
2026-04-25 18:47 -6.34176 -42.53149 35887 ft 469 kts 279°
2026-04-25 18:48 -6.33225 -42.59638 35891 ft 469 kts 279°
2026-04-25 18:48 -6.32273 -42.66126 35891 ft 469 kts 279°
2026-04-25 18:49 -6.31319 -42.72630 35890 ft 469 kts 279°
2026-04-25 18:49 -6.30364 -42.79126 35891 ft 469 kts 279°
2026-04-25 18:50 -6.29415 -42.85583 35890 ft 469 kts 279°
2026-04-25 18:50 -6.28459 -42.92076 35890 ft 469 kts 279°
2026-04-25 18:51 -6.27665 -42.97472 35893 ft 469 kts 279°
2026-04-25 18:51 -6.26546 -43.05059 35893 ft 469 kts 279°
2026-04-25 18:52 -6.25588 -43.11552 35897 ft 469 kts 279°
2026-04-25 18:52 -6.24630 -43.18038 35892 ft 469 kts 279°
2026-04-25 18:53 -6.23678 -43.24483 35894 ft 469 kts 279°
2026-04-25 18:53 -6.22717 -43.30974 35898 ft 469 kts 279°
2026-04-25 18:54 -6.21277 -43.40703 35898 ft 469 kts 279°
2026-04-25 18:55 -6.20316 -43.47184 35897 ft 469 kts 279°
2026-04-25 18:55 -6.19353 -43.53671 35903 ft 469 kts 279°
2026-04-25 18:56 -6.18390 -43.60155 35901 ft 469 kts 279°
2026-04-25 18:56 -6.17424 -43.66654 35903 ft 469 kts 279°
2026-04-25 18:57 -6.16460 -43.73132 35903 ft 469 kts 279°
2026-04-25 18:57 -6.15495 -43.79615 35900 ft 469 kts 279°
2026-04-25 18:58 -6.14529 -43.86103 35897 ft 469 kts 279°
2026-04-25 18:58 -6.13085 -43.95783 35897 ft 469 kts 279°
2026-04-25 18:59 -6.11147 -44.08752 35898 ft 469 kts 279°
2026-04-25 19:00 -6.09692 -44.18477 35902 ft 469 kts 279°
2026-04-25 19:01 -6.07669 -44.28098 35901 ft 469 kts 285°
2026-04-25 19:01 -6.06084 -44.34407 35903 ft 469 kts 285°
2026-04-25 19:02 -6.03732 -44.43987 35905 ft 469 kts 284°
2026-04-25 19:03 -6.01955 -44.51393 35902 ft 469 kts 284°
2026-04-25 19:03 -5.99924 -44.59876 35906 ft 469 kts 284°
2026-04-25 19:04 -5.97633 -44.69426 35903 ft 468 kts 284°
2026-04-25 19:05 -5.94578 -44.82144 35904 ft 468 kts 284°
2026-04-25 19:06 -5.93052 -44.88490 35912 ft 467 kts 284°
2026-04-25 19:06 -5.90776 -44.97953 35909 ft 466 kts 284°
2026-04-25 19:07 -5.88485 -45.07465 35902 ft 466 kts 284°
2026-04-25 19:08 -5.86196 -45.16968 35904 ft 466 kts 284°
2026-04-25 19:09 -5.83657 -45.27498 35900 ft 466 kts 284°
2026-04-25 19:10 -5.80861 -45.39079 35894 ft 465 kts 284°
2026-04-25 19:10 -5.79592 -45.44333 35902 ft 465 kts 284°
2026-04-25 19:11 -5.78068 -45.50641 35899 ft 465 kts 284°
2026-04-25 19:11 -5.76542 -45.56952 35897 ft 465 kts 284°
2026-04-25 19:12 -5.75015 -45.63263 35897 ft 464 kts 284°
2026-04-25 19:12 -5.73491 -45.69562 35898 ft 464 kts 284°
2026-04-25 19:13 -5.71966 -45.75859 35898 ft 464 kts 284°
2026-04-25 19:13 -5.70442 -45.82153 35900 ft 464 kts 284°
2026-04-25 19:14 -5.68916 -45.88447 35893 ft 464 kts 284°
2026-04-25 19:14 -5.67399 -45.94703 35896 ft 464 kts 284°
2026-04-25 19:15 -5.65870 -46.01005 35903 ft 464 kts 284°
2026-04-25 19:15 -5.64342 -46.07296 35905 ft 464 kts 284°
2026-04-25 19:16 -5.62813 -46.13592 35903 ft 464 kts 284°
2026-04-25 19:16 -5.61284 -46.19885 35897 ft 464 kts 284°
2026-04-25 19:17 -5.59755 -46.26175 35898 ft 463 kts 284°
2026-04-25 19:17 -5.58236 -46.32420 35900 ft 463 kts 284°
2026-04-25 19:18 -5.56704 -46.38718 35900 ft 464 kts 284°
2026-04-25 19:18 -5.55172 -46.45007 35903 ft 464 kts 284°
2026-04-25 19:19 -5.53637 -46.51308 35899 ft 464 kts 284°
2026-04-25 19:19 -5.52101 -46.57611 35903 ft 465 kts 284°
2026-04-25 19:20 -5.50573 -46.63877 35899 ft 465 kts 284°
2026-04-25 19:20 -5.49035 -46.70185 35903 ft 465 kts 284°
2026-04-25 19:21 -5.47496 -46.76492 35906 ft 465 kts 284°
2026-04-25 19:21 -5.45184 -46.85959 35899 ft 465 kts 284°
2026-04-25 19:22 -5.43645 -46.92256 35903 ft 465 kts 284°
2026-04-25 19:23 -5.41335 -47.01707 35903 ft 465 kts 284°
2026-04-25 19:23 -5.39021 -47.11161 35905 ft 465 kts 284°
2026-04-25 19:24 -5.37484 -47.17441 35898 ft 465 kts 284°
2026-04-25 19:25 -5.34393 -47.30057 35894 ft 465 kts 284°
2026-04-25 19:25 -5.32856 -47.36329 35894 ft 465 kts 284°
2026-04-25 19:26 -5.31309 -47.42635 35895 ft 465 kts 284°
2026-04-25 19:26 -5.29762 -47.48940 35893 ft 465 kts 284°
2026-04-25 19:27 -5.28477 -47.54175 35897 ft 465 kts 284°
2026-04-25 19:27 -5.26665 -47.61550 35899 ft 465 kts 284°
2026-04-25 19:28 -5.25114 -47.67863 35899 ft 466 kts 284°
2026-04-25 19:28 -5.23562 -47.74178 35899 ft 466 kts 284°
2026-04-25 19:29 -5.22008 -47.80497 35901 ft 466 kts 284°
2026-04-25 19:29 -5.20460 -47.86788 35900 ft 467 kts 284°
2026-04-25 19:30 -5.18901 -47.93121 35904 ft 467 kts 284°
2026-04-25 19:30 -5.17342 -47.99449 35902 ft 468 kts 284°
2026-04-25 19:31 -5.15781 -48.05788 35904 ft 468 kts 284°
2026-04-25 19:31 -5.14223 -48.12107 35904 ft 469 kts 284°
2026-04-25 19:32 -5.12657 -48.18456 35902 ft 469 kts 284°
2026-04-25 19:32 -5.11354 -48.23736 35907 ft 469 kts 285°
2026-04-25 19:33 -5.09530 -48.31128 35906 ft 468 kts 285°
2026-04-25 19:33 -5.07964 -48.37470 35908 ft 468 kts 285°
2026-04-25 19:34 -5.06397 -48.43818 35901 ft 468 kts 285°
2026-04-25 19:34 -5.04840 -48.50172 35898 ft 469 kts 284°
2026-04-25 19:35 -5.03287 -48.56529 35904 ft 469 kts 284°
2026-04-25 19:35 -5.01731 -48.62895 35908 ft 469 kts 284°
2026-04-25 19:36 -5.00184 -48.69215 35903 ft 470 kts 284°
2026-04-25 19:36 -4.98624 -48.75586 35902 ft 470 kts 284°
2026-04-25 19:37 -4.97063 -48.81957 35906 ft 470 kts 284°
2026-04-25 19:37 -4.95501 -48.88328 35903 ft 470 kts 284°
2026-04-25 19:38 -4.93955 -48.94628 35903 ft 470 kts 284°
2026-04-25 19:38 -4.92384 -49.01033 35905 ft 470 kts 284°
2026-04-25 19:39 -4.90825 -49.07386 35904 ft 470 kts 284°
2026-04-25 19:39 -4.89260 -49.13759 35906 ft 470 kts 284°
2026-04-25 19:40 -4.87700 -49.20111 35904 ft 469 kts 284°
2026-04-25 19:40 -4.86146 -49.26431 35902 ft 469 kts 284°
2026-04-25 19:41 -4.84582 -49.32792 35905 ft 469 kts 284°
2026-04-25 19:41 -4.83537 -49.37039 35899 ft 469 kts 284°
2026-04-25 19:42 -4.81456 -49.45498 35903 ft 469 kts 284°
2026-04-25 19:42 -4.79892 -49.51851 35900 ft 469 kts 284°
2026-04-25 19:43 -4.78340 -49.58149 35904 ft 468 kts 284°
2026-04-25 19:43 -4.76783 -49.64471 35903 ft 468 kts 284°
2026-04-25 19:44 -4.75214 -49.70836 35900 ft 468 kts 284°
2026-04-25 19:44 -4.73650 -49.77177 35902 ft 468 kts 284°
2026-04-25 19:45 -4.72088 -49.83508 35900 ft 467 kts 284°
2026-04-25 19:45 -4.70536 -49.89798 35908 ft 467 kts 284°
2026-04-25 19:46 -4.68975 -49.96120 35909 ft 467 kts 284°
2026-04-25 19:46 -4.67411 -50.02452 35903 ft 467 kts 284°
2026-04-25 19:47 -4.65849 -50.08773 35909 ft 467 kts 284°
2026-04-25 19:47 -4.64295 -50.15059 35909 ft 467 kts 284°
2026-04-25 19:48 -4.62730 -50.21385 35901 ft 467 kts 284°
2026-04-25 19:48 -4.61162 -50.27724 35908 ft 468 kts 284°
2026-04-25 19:49 -4.60112 -50.31966 35905 ft 469 kts 284°
2026-04-25 19:49 -4.58021 -50.40412 35903 ft 469 kts 284°
2026-04-25 19:50 -4.55663 -50.49929 35902 ft 469 kts 284°
2026-04-25 19:51 -4.54099 -50.56238 35906 ft 469 kts 284°
2026-04-25 19:51 -4.52525 -50.62586 35906 ft 469 kts 284°
2026-04-25 19:52 -4.50953 -50.68925 35908 ft 470 kts 284°
2026-04-25 19:52 -4.49371 -50.75300 35909 ft 471 kts 284°
2026-04-25 19:53 -4.47788 -50.81673 35902 ft 471 kts 284°
2026-04-25 19:53 -4.46208 -50.88038 35909 ft 471 kts 284°
2026-04-25 19:54 -4.44625 -50.94410 35909 ft 471 kts 284°
2026-04-25 19:54 -4.43048 -51.00754 35906 ft 473 kts 284°
2026-04-25 19:55 -4.41454 -51.07165 35906 ft 473 kts 284°
2026-04-25 19:55 -4.39861 -51.13568 35908 ft 474 kts 284°
2026-04-25 19:56 -4.38274 -51.19946 35906 ft 474 kts 284°
2026-04-25 19:56 -4.36681 -51.26345 35905 ft 474 kts 284°
2026-04-25 19:57 -4.35085 -51.32754 35902 ft 473 kts 284°
2026-04-25 19:57 -4.33486 -51.39176 35905 ft 474 kts 284°
2026-04-25 19:58 -4.32156 -51.44512 35904 ft 475 kts 284°
2026-04-25 19:58 -4.30557 -51.50926 35901 ft 474 kts 284°
2026-04-25 19:59 -4.28955 -51.57348 35899 ft 475 kts 284°
2026-04-25 19:59 -4.27361 -51.63737 35903 ft 475 kts 284°
2026-04-25 20:00 -4.25757 -51.70167 35905 ft 475 kts 284°
2026-04-25 20:00 -4.24148 -51.76610 35903 ft 475 kts 284°
2026-04-25 20:01 -4.21746 -51.86227 35902 ft 475 kts 284°
2026-04-25 20:01 -4.20142 -51.92644 35900 ft 475 kts 284°
2026-04-25 20:02 -4.18532 -51.99084 35902 ft 476 kts 284°
2026-04-25 20:02 -4.16923 -52.05519 35897 ft 476 kts 284°
2026-04-25 20:03 -4.15320 -52.11928 35907 ft 478 kts 284°
2026-04-25 20:03 -4.13701 -52.18396 35906 ft 478 kts 284°
2026-04-25 20:04 -4.12082 -52.24862 35901 ft 478 kts 284°
2026-04-25 20:04 -4.10465 -52.31320 35897 ft 478 kts 284°
2026-04-25 20:05 -4.08855 -52.37746 35894 ft 477 kts 284°
2026-04-25 20:05 -4.07237 -52.44201 35897 ft 477 kts 284°
2026-04-25 20:06 -4.05620 -52.50652 35900 ft 477 kts 284°
2026-04-25 20:06 -4.04002 -52.57100 35899 ft 478 kts 284°
2026-04-25 20:07 -4.02389 -52.63530 35900 ft 478 kts 284°
2026-04-25 20:07 -4.00767 -52.69992 35901 ft 478 kts 284°
2026-04-25 20:08 -3.99148 -52.76441 35894 ft 478 kts 284°
2026-04-25 20:08 -3.97526 -52.82902 35898 ft 477 kts 284°
2026-04-25 20:09 -3.95914 -52.89317 35896 ft 477 kts 284°
2026-04-25 20:09 -3.94290 -52.95774 35897 ft 479 kts 284°
2026-04-25 20:10 -3.92662 -53.02252 35894 ft 480 kts 284°
2026-04-25 20:10 -3.91029 -53.08748 35894 ft 479 kts 284°
2026-04-25 20:11 -3.89399 -53.15226 35898 ft 479 kts 284°
2026-04-25 20:11 -3.87779 -53.21660 35895 ft 479 kts 284°
2026-04-25 20:12 -3.86148 -53.28139 35892 ft 479 kts 284°
2026-04-25 20:12 -3.84789 -53.33534 35894 ft 478 kts 284°
2026-04-25 20:13 -3.82896 -53.41048 35891 ft 478 kts 284°
2026-04-25 20:13 -3.81269 -53.47505 35893 ft 478 kts 284°
2026-04-25 20:14 -3.79642 -53.53958 35891 ft 477 kts 284°
2026-04-25 20:14 -3.78024 -53.60372 35891 ft 477 kts 285°
2026-04-25 20:15 -3.76396 -53.66826 35895 ft 478 kts 284°
2026-04-25 20:15 -3.74766 -53.73285 35891 ft 478 kts 284°
2026-04-25 20:16 -3.73140 -53.79730 35890 ft 476 kts 285°
2026-04-25 20:16 -3.71526 -53.86120 35891 ft 476 kts 285°
2026-04-25 20:17 -3.69903 -53.92543 35894 ft 476 kts 285°
2026-04-25 20:17 -3.68273 -53.98990 35887 ft 478 kts 285°
2026-04-25 20:18 -3.66640 -54.05452 35884 ft 479 kts 285°
2026-04-25 20:18 -3.65004 -54.11923 35887 ft 479 kts 285°
2026-04-25 20:19 -3.63368 -54.18392 35884 ft 479 kts 285°
2026-04-25 20:19 -3.61732 -54.24858 35882 ft 479 kts 285°
2026-04-25 20:20 -3.60106 -54.31283 35883 ft 479 kts 285°
2026-04-25 20:20 -3.58471 -54.37743 35884 ft 479 kts 285°
2026-04-25 20:21 -3.56833 -54.44206 35879 ft 479 kts 285°
2026-04-25 20:21 -3.55196 -54.50669 35879 ft 479 kts 285°
2026-04-25 20:22 -3.54101 -54.54993 35876 ft 478 kts 285°
2026-04-25 20:22 -3.51924 -54.63582 35876 ft 477 kts 285°
2026-04-25 20:23 -3.50301 -54.69983 35875 ft 478 kts 285°
2026-04-25 20:23 -3.48663 -54.76438 35872 ft 478 kts 285°
2026-04-25 20:24 -3.47024 -54.82894 35878 ft 477 kts 284°
2026-04-25 20:24 -3.45391 -54.89331 35873 ft 477 kts 285°
2026-04-25 20:25 -3.43755 -54.95775 35871 ft 477 kts 285°
2026-04-25 20:25 -3.42119 -55.02218 35878 ft 478 kts 284°
2026-04-25 20:26 -3.40483 -55.08659 35870 ft 478 kts 284°
2026-04-25 20:26 -3.38856 -55.15063 35868 ft 478 kts 284°
2026-04-25 20:27 -3.37215 -55.21520 35868 ft 478 kts 284°
2026-04-25 20:27 -3.35576 -55.27966 35868 ft 478 kts 285°
2026-04-25 20:28 -3.33936 -55.34413 35866 ft 478 kts 285°
2026-04-25 20:28 -3.32293 -55.40870 35864 ft 478 kts 285°
2026-04-25 20:29 -3.30662 -55.47282 35861 ft 478 kts 285°
2026-04-25 20:29 -3.29021 -55.53727 35859 ft 478 kts 285°
2026-04-25 20:30 -3.27377 -55.60185 35862 ft 478 kts 285°
2026-04-25 20:30 -3.25734 -55.66635 35863 ft 478 kts 285°
2026-04-25 20:31 -3.24091 -55.73084 35859 ft 478 kts 285°
2026-04-25 20:31 -3.22446 -55.79542 35852 ft 478 kts 285°
2026-04-25 20:32 -3.20821 -55.86011 35854 ft 480 kts 281°
2026-04-25 20:32 -3.19864 -55.92569 35858 ft 480 kts 278°
2026-04-25 20:33 -3.18968 -55.99187 35860 ft 480 kts 277°
2026-04-25 20:33 -3.18378 -56.03615 35860 ft 480 kts 277°
2026-04-25 20:34 -3.17207 -56.12431 35860 ft 480 kts 277°
2026-04-25 20:34 -3.16328 -56.19060 35862 ft 481 kts 277°
2026-04-25 20:35 -3.15448 -56.25687 35856 ft 481 kts 277°
2026-04-25 20:35 -3.14566 -56.32332 35854 ft 481 kts 277°
2026-04-25 20:36 -3.13689 -56.38934 35855 ft 482 kts 277°
2026-04-25 20:36 -3.12804 -56.45587 35861 ft 482 kts 277°
2026-04-25 20:37 -3.11921 -56.52231 35853 ft 482 kts 277°
2026-04-25 20:37 -3.11037 -56.58875 35856 ft 482 kts 277°
2026-04-25 20:38 -3.10151 -56.65529 35855 ft 482 kts 277°
2026-04-25 20:38 -3.09266 -56.72173 35853 ft 482 kts 277°
2026-04-25 20:39 -3.08384 -56.78790 35859 ft 482 kts 277°
2026-04-25 20:39 -3.07790 -56.83249 35855 ft 482 kts 277°
2026-04-25 20:40 -3.06614 -56.92071 35858 ft 482 kts 277°
2026-04-25 20:40 -3.05726 -56.98722 35854 ft 482 kts 277°
2026-04-25 20:41 -3.04839 -57.05365 35859 ft 482 kts 277°
2026-04-25 20:41 -3.03951 -57.12018 35856 ft 481 kts 278°
2026-04-25 20:42 -3.03068 -57.18621 35855 ft 481 kts 278°
2026-04-25 20:42 -3.02180 -57.25264 35857 ft 481 kts 278°
2026-04-25 20:43 -3.01292 -57.31906 35855 ft 481 kts 278°
2026-04-25 20:43 -3.00403 -57.38549 35855 ft 481 kts 278°
2026-04-25 20:44 -2.99663 -57.44072 35857 ft 480 kts 278°
2026-04-25 20:44 -2.98634 -57.51760 35864 ft 480 kts 278°
2026-04-25 20:45 -2.97746 -57.58388 35863 ft 480 kts 278°
2026-04-25 20:45 -2.97008 -57.63892 35862 ft 480 kts 278°
2026-04-25 20:46 -2.96122 -57.70495 35861 ft 478 kts 278°
2026-04-25 20:46 -2.95239 -57.77080 35862 ft 477 kts 278°
2026-04-25 20:47 -2.94356 -57.83657 35865 ft 477 kts 278°
2026-04-25 20:47 -2.93472 -57.90233 35865 ft 477 kts 278°
2026-04-25 20:48 -2.92591 -57.96797 35860 ft 475 kts 278°
2026-04-25 20:48 -2.91710 -58.03350 35834 ft 475 kts 278°
2026-04-25 20:49 -2.91275 -58.06583 35183 ft 477 kts 278°
2026-04-25 20:49 -2.90832 -58.09878 34349 ft 482 kts 278°
2026-04-25 20:49 -2.90383 -58.13217 33576 ft 484 kts 278°
2026-04-25 20:49 -2.89933 -58.16558 32812 ft 485 kts 278°
2026-04-25 20:50 -2.89485 -58.19890 32324 ft 478 kts 278°
2026-04-25 20:50 -2.89043 -58.23175 31827 ft 473 kts 278°
2026-04-25 20:50 -2.88606 -58.26418 31298 ft 468 kts 278°
2026-04-25 20:50 -2.88178 -58.29595 30812 ft 464 kts 278°
2026-04-25 20:51 -2.87749 -58.32784 30302 ft 459 kts 278°
2026-04-25 20:51 -2.87324 -58.35936 29779 ft 456 kts 278°
2026-04-25 20:51 -2.86902 -58.39066 29223 ft 451 kts 278°
2026-04-25 20:51 -2.86485 -58.42163 28715 ft 446 kts 278°
2026-04-25 20:52 -2.86073 -58.45223 28214 ft 441 kts 278°
2026-04-25 20:52 -2.85802 -58.47231 27887 ft 438 kts 278°
2026-04-25 20:52 -2.85700 -58.51255 27280 ft 431 kts 264°
2026-04-25 20:52 -2.86064 -58.54210 26792 ft 427 kts 262°
2026-04-25 20:53 -2.86485 -58.57097 26308 ft 424 kts 262°
2026-04-25 20:53 -2.86918 -58.60017 25812 ft 420 kts 262°
2026-04-25 20:53 -2.87342 -58.62900 25331 ft 417 kts 262°
2026-04-25 20:53 -2.87758 -58.65758 24845 ft 414 kts 262°
2026-04-25 20:54 -2.88170 -58.68603 24371 ft 411 kts 262°
2026-04-25 20:54 -2.88576 -58.71419 23903 ft 408 kts 262°
2026-04-25 20:54 -2.88978 -58.74216 23423 ft 405 kts 263°
2026-04-25 20:54 -2.89379 -58.77006 22883 ft 402 kts 263°
2026-04-25 20:55 -2.89774 -58.79761 22409 ft 397 kts 263°
2026-04-25 20:55 -2.90165 -58.82483 21938 ft 392 kts 263°
2026-04-25 20:55 -2.90549 -58.85166 21469 ft 388 kts 263°
2026-04-25 20:55 -2.90930 -58.87823 21018 ft 383 kts 263°
2026-04-25 20:56 -2.91306 -58.90450 20556 ft 379 kts 263°
2026-04-25 20:56 -2.91675 -58.93019 20114 ft 375 kts 263°
2026-04-25 20:56 -2.92043 -58.95593 19665 ft 371 kts 263°
2026-04-25 20:56 -2.92408 -58.98140 19220 ft 368 kts 263°
2026-04-25 20:57 -2.92771 -59.00669 18771 ft 365 kts 263°
2026-04-25 20:57 -2.93129 -59.03177 18333 ft 363 kts 262°
2026-04-25 20:57 -2.93485 -59.05662 17846 ft 360 kts 263°
2026-04-25 20:57 -2.93839 -59.08131 17399 ft 355 kts 263°
2026-04-25 20:58 -2.94188 -59.10571 16972 ft 352 kts 262°
2026-04-25 20:58 -2.94529 -59.12956 16537 ft 349 kts 263°
2026-04-25 20:58 -2.94871 -59.15350 16110 ft 346 kts 263°
2026-04-25 20:58 -2.95212 -59.17731 15682 ft 344 kts 263°
2026-04-25 20:59 -2.95550 -59.20098 15254 ft 342 kts 263°
2026-04-25 20:59 -2.95885 -59.22436 14834 ft 339 kts 263°
2026-04-25 20:59 -2.96219 -59.24773 14419 ft 336 kts 262°
2026-04-25 20:59 -2.96549 -59.27082 14008 ft 334 kts 263°
2026-04-25 21:00 -2.96877 -59.29374 13581 ft 332 kts 263°
2026-04-25 21:00 -2.97093 -59.30885 13281 ft 330 kts 263°
2026-04-25 21:00 -2.97844 -59.36140 12320 ft 323 kts 263°
2026-04-25 21:01 -2.98160 -59.38352 11914 ft 320 kts 262°
2026-04-25 21:01 -2.98470 -59.40524 11508 ft 317 kts 263°
2026-04-25 21:01 -2.98781 -59.42702 11119 ft 315 kts 263°
2026-04-25 21:01 -2.99090 -59.44863 10727 ft 313 kts 263°
2026-04-25 21:02 -2.99396 -59.47014 10335 ft 311 kts 263°
2026-04-25 21:02 -2.99700 -59.49149 9954 ft 309 kts 263°
2026-04-25 21:02 -2.99996 -59.51221 9848 ft 293 kts 263°
2026-04-25 21:02 -3.00282 -59.53232 9493 ft 290 kts 263°
2026-04-25 21:03 -3.00565 -59.55223 9097 ft 289 kts 263°
2026-04-25 21:03 -3.00846 -59.57204 8743 ft 285 kts 263°
2026-04-25 21:03 -3.01124 -59.59160 8387 ft 283 kts 263°
2026-04-25 21:03 -3.01397 -59.61075 8043 ft 280 kts 263°
2026-04-25 21:04 -3.01669 -59.62994 7698 ft 278 kts 263°
2026-04-25 21:04 -3.01940 -59.64899 7357 ft 276 kts 263°
2026-04-25 21:04 -3.02209 -59.66789 7021 ft 273 kts 263°
2026-04-25 21:04 -3.02475 -59.68657 6698 ft 271 kts 263°
2026-04-25 21:05 -3.02741 -59.70529 6349 ft 269 kts 263°
2026-04-25 21:05 -3.03004 -59.72378 6011 ft 269 kts 263°
2026-04-25 21:05 -3.03267 -59.74222 5803 ft 263 kts 263°
2026-04-25 21:05 -3.03520 -59.75988 5812 ft 251 kts 263°
2026-04-25 21:06 -3.03761 -59.77673 5764 ft 237 kts 263°
2026-04-25 21:06 -3.03902 -59.79278 5499 ft 228 kts 269°
2026-04-25 21:06 -3.03923 -59.80823 5305 ft 213 kts 271°
2026-04-25 21:06 -3.03922 -59.81777 5205 ft 201 kts 271°
2026-04-25 21:07 -3.03914 -59.83560 4757 ft 192 kts 271°
2026-04-25 21:07 -3.03908 -59.84892 4437 ft 191 kts 271°
2026-04-25 21:07 -3.03902 -59.86222 4127 ft 191 kts 271°
2026-04-25 21:07 -3.03898 -59.87551 3832 ft 188 kts 271°
2026-04-25 21:08 -3.03896 -59.88815 3651 ft 176 kts 271°
2026-04-25 21:08 -3.03893 -59.90016 3296 ft 171 kts 270°
2026-04-25 21:08 -3.03890 -59.91200 2851 ft 169 kts 270°
2026-04-25 21:08 -3.03887 -59.92375 2502 ft 168 kts 270°
2026-04-25 21:09 -3.03882 -59.94717 2078 ft 169 kts 270°
2026-04-25 21:09 -3.03880 -59.95878 1877 ft 159 kts 270°
2026-04-25 21:09 -3.03878 -59.96947 1647 ft 149 kts 270°
2026-04-25 21:10 -3.03875 -59.97946 1424 ft 143 kts 270°
2026-04-25 21:10 -3.03873 -59.98938 1263 ft 142 kts 270°
2026-04-25 21:10 -3.03870 -59.99931 1089 ft 142 kts 270°
2026-04-25 21:10 -3.03867 -60.00917 897 ft 141 kts 269°
2026-04-25 21:11 -3.03864 -60.01887 684 ft 138 kts 268°
2026-04-25 21:11 -3.03863 -60.02846 501 ft 137 kts 269°
2026-04-25 21:11 -3.03858 -60.03800 350 ft 137 kts 268°
2026-04-25 21:11 -3.03858 -60.04695 302 ft 113 kts 269°
2026-04-25 21:12 -3.03858 -60.05302 298 ft 61 kts 270°
2026-04-25 21:12 -3.03856 -60.05635 297 ft 45 kts 270°
2026-04-25 21:12 -3.03856 -60.05938 297 ft 41 kts 270°
2026-04-25 21:12 -3.03855 -60.06095 297 ft 21 kts 270°
2026-04-25 21:13 -3.03756 -60.06171 296 ft 1 kts 19°
2026-04-25 21:13 -3.03752 -60.06169 296 ft 3 kts 19°
2026-04-25 21:13 -3.03718 -60.06152 299 ft 7 kts 42°
2026-04-25 21:14 -3.03692 -60.06094 300 ft 11 kts 82°
2026-04-25 21:14 -3.03690 -60.06001 300 ft 15 kts 91°
2026-04-25 21:14 -3.03691 -60.05885 300 ft 18 kts 91°
2026-04-25 21:14 -3.03690 -60.05751 301 ft 20 kts 90°
2026-04-25 21:15 -3.03690 -60.05614 301 ft 20 kts 90°
2026-04-25 21:15 -3.03690 -60.05476 302 ft 20 kts 90°
2026-04-25 21:15 -3.03670 -60.05348 300 ft 18 kts 76°
2026-04-25 21:15 -3.03638 -60.05224 301 ft 18 kts 75°
2026-04-25 21:16 -3.03605 -60.05100 302 ft 18 kts 75°
2026-04-25 21:16 -3.03568 -60.04982 303 ft 17 kts 62°
2026-04-25 21:16 -3.03497 -60.04898 301 ft 15 kts 37°
2026-04-25 21:16 -3.03414 -60.04829 303 ft 16 kts 48°
2026-04-25 21:17 -3.03360 -60.04735 305 ft 15 kts 74°
2026-04-25 21:17 -3.03316 -60.04674 304 ft 7 kts 26°
2026-04-25 21:17 -3.03283 -60.04667 304 ft 3 kts
2026-04-25 21:17 -3.03278 -60.04667 303 ft 0 kts